Home > Time Zones > World Clock > Weather > Japan > Naha > Past weeks

Flag for Japan Weather past 2 weeks in Naha, Okinawa, Japan

Now
84 °F

Passing clouds.


Feels Like: 94 °F
Forecast: 82 / 87 °F
Wind: 12 mph from Southeast

Location: Naha Airport

Current Time: Sep 22, 2014 at 6:12:32 AM

Latest Report: Sep 22, 2014 at 5:30 AM


Visibility: N/A

Pressure: 29.83 "Hg

Humidity: 79%

Dew point: 77 °F

Location of NahaLocation

Historic Weather in Naha — Graph

°F

Naha temperature yesterday

Maximum temperature yesterday: 90 °F (at 9:30 AM)
Minimum temperature yesterday: 84 °F (at 2:30 AM)
Average temperature yesterday: 87 °F

Past Weeks' High & Low Weather Summary

 TemperatureHumidityPressure
High91 °F (Sep 14, 1:00 PM)89% (Sep 7, 6:00 AM)29.92 "Hg (Sep 7, 6:00 AM)
Low81 °F (Sep 7, 6:00 AM)52% (Sep 17, 3:00 PM)29.56 "Hg (Sep 7, 5:00 AM)
Average85 °F74%29.79 "Hg
* Reported Sep 7 5:00 AM — Sep 22 5:00 AM, Naha, Weather by CustomWeather, © 2014

Note: Actual official high and low records may vary slightly from our data, if they occured in-between our weather recording intervals... More about our weather records

Advertising

Naha weather history for previous 24 hours

 ConditionsComfort  
Time TempWeatherWind HumidityBarometerVisibility
5:00 AM
Sep 22
84 °FPassing clouds.13 mph79%29.83 "HgN/A
4:30 AM84 °FPassing clouds.10 mph74%29.83 "HgN/A
4:00 AM84 °FPassing clouds.12 mph79%29.83 "HgN/A
3:30 AM84 °FPassing clouds.13 mph79%29.83 "HgN/A
3:00 AM84 °FPassing clouds.12 mph79%29.83 "HgN/A
2:30 AM84 °FPassing clouds.13 mph79%29.83 "HgN/A
2:00 AM84 °FPassing clouds.13 mph79%29.83 "HgN/A
1:30 AM84 °FPassing clouds.10 mph79%29.83 "HgN/A
1:00 AM84 °FPassing clouds.12 mph74%29.83 "HgN/A
12:30 AM84 °FPassing clouds.12 mph79%29.83 "HgN/A
12:00 AM84 °FPassing clouds.14 mph79%29.83 "HgN/A
11:30 PM
Sep 21
84 °FPassing clouds.13 mph79%29.86 "HgN/A
11:00 PM84 °FPassing clouds.12 mph79%29.86 "HgN/A
10:30 PM84 °FPassing clouds.13 mph79%29.86 "HgN/A
10:00 PM86 °FPassing clouds.15 mph75%29.86 "HgN/A
9:30 PM86 °FPassing clouds.13 mph75%29.86 "HgN/A
9:00 PM86 °FPassing clouds.15 mph75%29.86 "HgN/A
8:30 PM86 °FPassing clouds.14 mph75%29.86 "HgN/A
8:00 PM86 °FPassing clouds.14 mph75%29.83 "HgN/A
7:30 PM86 °FPassing clouds.14 mph75%29.83 "HgN/A
7:00 PM86 °FPassing clouds.15 mph75%29.83 "HgN/A
6:30 PM86 °FPassing clouds.15 mph75%29.80 "HgN/A
6:00 PM86 °FScattered clouds.17 mph75%29.80 "HgN/A
5:30 PM88 °FPassing clouds.18 mph70%29.80 "HgN/A
5:00 PM88 °FPassing clouds.17 mph70%29.80 "HgN/A
4:30 PM88 °FPassing clouds.20 mph66%29.77 "HgN/A
4:00 PM88 °FPartly sunny.18 mph70%29.77 "HgN/A
3:30 PM90 °FPassing clouds.18 mph67%29.77 "HgN/A
3:00 PM90 °FScattered clouds.20 mph67%29.77 "HgN/A
2:30 PM90 °FScattered clouds.21 mph67%29.77 "HgN/A
2:00 PM90 °FPassing clouds.18 mph67%29.80 "HgN/A
1:30 PM90 °FScattered clouds.22 mph67%29.80 "HgN/A
1:00 PM90 °FPassing clouds.21 mph71%29.80 "HgN/A
12:30 PM90 °FScattered clouds.22 mph71%29.80 "HgN/A
12:00 PM90 °FScattered clouds.22 mph67%29.80 "HgN/A
11:30 AM90 °FScattered showers. Scattered clouds.21 mph67%29.80 "HgN/A
11:00 AM90 °FScattered showers. Scattered clouds.17 mph67%29.80 "HgN/A
10:30 AM90 °FScattered clouds.22 mph67%29.80 "HgN/A
10:00 AM90 °FPassing clouds.20 mph67%29.80 "HgN/A
9:30 AM90 °FPassing clouds.20 mph71%29.80 "HgN/A
9:00 AM88 °FScattered clouds.18 mph70%29.80 "HgN/A
8:30 AM86 °FSprinkles. Passing clouds.17 mph75%29.80 "HgN/A
8:00 AM86 °FRain showers. Passing clouds.17 mph75%29.80 "HgN/A
7:30 AM86 °FScattered showers. Passing clouds.15 mph75%29.80 "HgN/A
7:00 AM86 °FPassing clouds.14 mph70%29.80 "HgN/A
6:30 AM84 °FScattered showers. Passing clouds.15 mph79%29.77 "HgN/A
6:00 AM84 °FPassing clouds.15 mph79%29.77 "HgN/A
Weather by CustomWeather, © 2014

See weather overviewHow to use our weather pages